Regional Weather Roundup
Issued by NWS

Home | Current Version | Previous Version | Text Only | Print | Product List | Glossary Off
Versions: 1 2 3 4 5 6 7 8 9 10 11 12 13 14 15 16 17 18 19 20 21 22 23 24 25 26 27 28 29 30 31 32 33 34 35 36 37 38 39 40 41 42 43 44 45 46 47 48 49 50

000
ASUS45 KTFX 261210
RWRMT
MONTANA REGIONAL WEATHER ROUNDUP
NATIONAL WEATHER SERVICE GREAT FALLS MT
600 AM MDT MON SEP 26 2016

NOTE: "FAIR" INDICATES FEW OR NO CLOUDS BELOW 12000 FEET WITH NO
SIGNIFICANT WEATHER AND/OR OBSTRUCTIONS TO VISIBILITY.

MTZ001>007-043-261300-
WEST OF THE DIVIDE

CITY           SKY/WX    TMP DP  RH WIND       PRES   REMARKS
KALISPELL      PTCLDY    36  36 100 CALM      30.38S
MISSOULA       CLEAR     43  41  93 CALM      30.42S
BUTTE          CLOUDY    35  33  92 CALM      30.46R
MULLAN PASS    PTCLDY    48  38  68 S7        30.42F
ANACONDA         N/A     41  37  87 SW5       30.45R
DEER LODGE       N/A     39  36  87 CALM      30.46R
EUREKA           N/A     39  37  93 CALM      30.37S
HAMILTON         N/A     41  39  93 CALM      30.42S
LIBBY            N/A     37  37 100 CALM      30.37S
PLAINS           N/A     38  33  82 CALM      30.36F
RONAN            N/A     38  35  89 CALM      30.38S
$$

MTZ008-052>055-261300-
SOUTHWEST MONTANA

CITY           SKY/WX    TMP DP  RH WIND       PRES   REMARKS
BOZEMAN        CLOUDY    43  38  82 S6        30.41S
DILLON         CLOUDY    42  37  82 S6        30.42F
W YELLOWSTONE    N/A     28  27  93 S3        30.52S
ENNIS          CLEAR     41  37  87 CALM      30.48S
THREE FORKS      N/A     37  18  46 CALM      30.35S
TWIN BRIDGES     N/A     39  33  79 S2        30.36S
$$

MTZ009-010-012-014-046-048-049-054-261300-
EAST SLOPES AND CENTRAL MONTANA

CITY           SKY/WX    TMP DP  RH WIND       PRES   REMARKS
CUT BANK       CLEAR     41  38  89 CALM      30.28F
GREAT FALLS    CLOUDY    47  40  76 SW8       30.32S
MALMSTROM AFB  CLOUDY    47  42  82 SW10      30.31F
HELENA         CLEAR     45  40  82 N3        30.36F
AUGUSTA          N/A     44  39  81 W8        30.32F
BOWMANS CRNR     N/A     45  39  79 S10       30.32F
CHOTEAU          N/A     48  41  76 S7        30.32F
CONRAD           N/A     38  37  96 CALM      30.28S
FAIRFIELD        N/A     46  39  76 S5        30.31S
POWER            N/A     44  39  82 SW6       30.31S
RAYNESFORD       N/A     47  40  75 NE5       30.33S
$$

MTZ011-013-016-021-045-047-050-051-261300-
NORTH CENTRAL MONTANA

CITY           SKY/WX    TMP DP  RH WIND       PRES   REMARKS
HAVRE          CLEAR     43  40  89 W9        30.26F
LEWISTOWN      CLEAR     43  38  82 SW5       30.34S
N BAR RANCH      N/A     48  39  71 W7        30.35R
CHINOOK          N/A     39  39 100 CALM      30.26S
DENTON           N/A     41  39  93 S6        30.28S
GEYSER           N/A     44  39  81 W8        30.32F
GRASS RANGE      N/A     48  41  76 SW15      30.29S
JUDITH GAP       N/A     44  39  82 N1        30.35S
ROY              N/A     44  40  88 MISG      30.28F
STANFORD         N/A     48  40  74 W7        30.34S
WINIFRED         N/A     47  41  77 MISG      30.31S
$$

MTZ017>020-022>027-061-062-261300-
NORTHEAST MONTANA

CITY           SKY/WX    TMP DP  RH WIND       PRES   REMARKS
GLASGOW        CLEAR     40  37  89 NW16      30.22S
JORDAN           N/A     42  39  89 W9        30.25R
SIDNEY         CLEAR     37  35  92 S3        30.22S
WOLF POINT     CLEAR     36  34  92 W5        30.23R
PLENTYWOOD       N/A     37  32  81 W7        30.19F
POPLAR           N/A     36  34  93 NW3       30.23R
SCOBEY           N/A     32  25  76 CALM      30.18S
$$

MTZ028>42-056>058-261300-
SOUTHCENTRAL AND SOUTHEAST MONTANA

CITY           SKY/WX    TMP DP  RH WIND       PRES   REMARKS
BAKER          CLEAR     37  34  89 CALM      30.25S
BILLINGS       PTCLDY    52  42  69 SW12      30.34S
LIVINGSTON     CLEAR     45  39  79 NW13      30.38R
MILES CITY     CLEAR     44  39  82 W9        30.25R
BIG TIMBER     CLEAR     50  41  71 W8G16     30.38R
EKALAKA          N/A     44  34  68 W2        30.22R
FORSYTH          N/A     46  43  87 W7        30.27R
HARLOWTON        N/A     46  40  80 W14       30.35S
LAUREL           N/A     44  38  79 SW6       30.30S
ROUNDUP          N/A     45  37  73 S8        30.21R
$$

REGIONAL REPORTS...DAKOTAS

CITY           SKY/WX    TMP DP  RH WIND       PRES   REMARKS
WILLISTON      CLEAR     40  33  76 S5        30.20S
MINOT          CLEAR     46  34  62 W14       30.11S
DICKINSON      CLEAR     36  34  92 W7        30.19S WCI  30
CROSBY           N/A     41  34  75 W8        30.19R
WATFORD CITY   MOCLDY    37  36  93 CALM      30.20S
BISMARCK       CLEAR     41  34  76 W8        30.17S
GRAND FORKS    PTCLDY    48  37  65 NW15      29.94S
FARGO          CLEAR     47  36  65 W12       29.98R
BUFFALO SD       N/A     43  37  79 W10       30.17F
RAPID CITY     CLEAR     45  33  63 SW3       30.27S
$$

REGIONAL REPORTS...WYOMING/IDAHO/WASHINGTON

CITY           SKY/WX    TMP DP  RH WIND       PRES   REMARKS
GILLETTE       CLEAR     47  40  76 W12       30.33S
SHERIDAN       CLOUDY    53  44  71 W7        30.34S
BUFFALO WY     CLEAR     50  37  61 SW5       30.37R
CODY           CLEAR     43  37  81 CALM      30.41R
YELLOWSTONE LA   N/A     28  28 100 CALM      30.55S
IDAHO FALLS    CLOUDY    38  35  89 N5        30.45R
SALMON         CLEAR     37  36  93 CALM      30.45S
BOISE          CLEAR     54  40  59 SE13      30.33S
SPOKANE        MOCLDY    52  43  71 NE10      30.29S
$$

REGIONAL REPORTS...ALBERTA

CITY           SKY/WX    TMP DP  RH WIND       PRES   REMARKS
EDMONTON       PTCLDY    48  36  61 SW9       30.09F
CALGARY        MOCLDY    54  39  58 SW3       30.18S
LETHBRIDGE     CLEAR     48  41  76 SW9       30.23S
MEDICINE HAT   CLEAR     41  37  87 SW7       30.21S
WATERTON GATE    N/A     54  39  58 SW23G35     N/A
CARDSTON         N/A     45  39  81 S5          N/A
MILK RIVER       N/A     41  39  93 W6          N/A
ONEFOUR          N/A     43  39  87 SW2         N/A
$$

REGIONAL REPORTS...SASKATCHEWAN

CITY           SKY/WX    TMP DP  RH WIND       PRES   REMARKS
SWIFT CURRENT  CLEAR     39  34  81 SW12      30.19S WCI  32
REGINA         CLEAR     32  30  93 NW8       30.17R WCI  25
SASKATOON      CLEAR     34  34 100 W3        30.18F
CYPRESS HILLS    N/A     48  28  46 N3          N/A
VAL MARIE        N/A     30  28  93 E1          N/A
ROCKGLEN         N/A     43  30  61 NW2         N/A
ASSINIBOIA       N/A     36  34  93 S6          N/A  WCI  31
$$



USA.gov is the U.S. government's official web portal to all federal, state and local government web resources and services.